Hit Tracker is now ESPN Home Run Tracker! Hit Tracker founder Greg Rybarczyk is now collaborating with the ESPN Stats & Information Group to continue tracking all MLB home runs, and helping baseball fans know "How Far It Really Went!™" Please credit any information on this site to ESPN Stats & Information Group. For more information and analysis on home runs, please contact founder Greg Rybarczyk. E-Mail ESPN Home Run Tracker
Main Page | Ballparks | Park Overlays | Glossary | Highlight Homers | Feedback | Bio | 3 Types of HR's | AAA Home Run Derby Last Updated: May 30, 2016, 9:05 pm PST
If you want to know "How Far It Really Went!", then you've come to the right place! Welcome to the ESPN Home Run Tracker, where you can find accurate, transparently verifiable distances for every home run hit in MLB games. Please also check out the ESPN MLB Scoreboard throughout the 2016 season! Contact us at grybar@hittrackeronline.com.
Season:
Ballpark detail for U.S. Cellular Field
Ballpark # of Home Runs HR per game Avg.
True
Distance
Avg.
Speed
Off
Bat
Avg.
Std.
Dist.
U.S. Cellular Field 46 1.84 393.6 103.2 393.3

Scatter Plot of Home Runs U.S. Cellular Field
 Overlay Ballpark:
Without range rings   With range rings

2016 Season Home Runs for U.S. Cellular Field
Click headers to sort
Date Video Path Hitter Hitter
Team
Pitcher Pitcher
Team
INN Ballpark Type/
Luck
 ^
True
Dist.
Speed
Off
Bat
Elev.
Angle
Horiz.
Angle
Apex Impact Due To: Std.
Dist.
#
Parks
Wind Temp. Alt.
04/19/16 Video View Frazier, Todd CHW Shoemaker, Matt LAA 2 U.S. Cellula... PL 387 107.0 23.9 112.9 67 -2 -1 1 390 30
04/08/16 Video View Frazier, Todd CHW Salazar, Danny CLE 4 U.S. Cellula... PL 386 101.0 31.5 113.5 97 5 -7 -5 385 30
04/09/16 Video View Abreu, Jose CHW Anderson, Cody CLE 3 U.S. Cellula... PL 404 108.2 22.0 103.7 65 3 -2 0 403 28
04/09/16 Video View Napoli, Mike CLE Sale, Chris CHW 6 U.S. Cellula... PL 421 103.8 27.0 94.3 99 0 -4 1 423 28
04/20/16 Video View Saladino, Tyler CHW Richards, Garrett LAA 1 U.S. Cellula... PL 372 102.4 26.4 118.4 68 0 0 1 371 29
04/21/16 Video View Trout, Mike LAA Danks, John CHW 5 U.S. Cellula... PL 425 105.2 27.4 99.4 97 0 0 1 424 30
04/21/16 Video View Frazier, Todd CHW Street, Huston LAA 9 U.S. Cellula... PL 404 101.2 28.0 79.3 89 2 0 1 401 26
04/23/16 Video View Cabrera, Melky CHW Lewis, Colby TEX 2 U.S. Cellula... PL 400 103.2 25.5 77.1 78 0 -1 1 401 28
04/23/16 Video View Frazier, Todd CHW Dyson, Sam TEX 8 U.S. Cellula... PL 366 98.6 29.5 114.8 83 -1 -2 1 368 24
04/24/16 Video View Navarro, Dioner CHW Holland, Derek TEX 3 U.S. Cellula... PL 384 97.9 34.3 106.6 111 9 1 2 372 22
05/03/16 Video View Ramirez, Hanley BOS Quintana, Jose CHW 5 U.S. Cellula... PL 386 103.1 26.4 67.4 75 1 -1 1 385 28
05/04/16 Video View Ortiz, David BOS Rodon, Carlos CHW 5 U.S. Cellula... PL 410 101.7 29.5 77.1 93 10 -4 1 402 29
05/05/16 Video View Pedroia, Dustin BOS Johnson, Erik CHW 1 U.S. Cellula... PL 345 96.4 34.9 115.5 109 -9 -3 2 355 20
05/06/16 Video View Abreu, Jose CHW Nolasco, Ricky MIN 3 U.S. Cellula... PL 407 102.9 31.8 105.5 113 0 1 2 403 30
05/06/16 Video View Arcia, Oswaldo MIN Latos, Mat CHW 4 U.S. Cellula... PL 398 103.8 26.4 108.5 77 1 0 1 396 30
05/17/16 Video View Abreu, Jose CHW Keuchel, Dallas HOU 4 U.S. Cellula... PL 430 106.2 24.0 87.7 84 0 -1 0 430 27
05/17/16 Video View Gattis, Evan HOU Albers, Matt CHW 11 U.S. Cellula... PL 371 107.0 22.9 120.0 55 1 -1 0 370 24
05/19/16 Video View Gattis, Evan HOU Sale, Chris CHW 8 U.S. Cellula... PL 398 100.7 28.2 100.9 92 0 -1 1 398 26
05/21/16 Video View Cain, Lorenzo KC Gonzalez, Miguel CHW 6 U.S. Cellula... PL 414 103.6 24.7 95.7 79 1 0 1 413 21
05/23/16 Video View Napoli, Mike CLE Latos, Mat CHW 2 U.S. Cellula... PL 352 96.1 34.2 112.9 106 -8 1 2 357 15
05/23/16 Video View Ramirez, Jose CLE Albers, Matt CHW 8 U.S. Cellula... PL 401 100.6 28.5 79.6 93 0 1 1 399 26
05/23/16 Video View Ramirez, Jose CLE Johnson, Erik CHW 2 U.S. Cellula... PL 392 106.6 23.1 71.4 63 0 0 0 391 28
05/23/16 Video View Davis, Rajai CLE Johnson, Erik CHW 5 U.S. Cellula... PL 376 100.0 35.6 107.7 127 0 -1 3 374 24
05/23/16 Video View Uribe, Juan CLE Johnson, Erik CHW 7 U.S. Cellula... PL 416 102.6 29.3 97.1 105 0 -1 1 415 30
05/24/16 Video View Eaton, Adam CHW Tomlin, Josh CLE 1 U.S. Cellula... PL 400 103.8 24.3 77.6 73 1 1 1 398 25
05/25/16 Video View Cabrera, Melky CHW Shaw, Bryan CLE 8 U.S. Cellula... PL 384 107.2 24.5 59.0 63 0 1 1 382 30
04/21/16 Video View Cabrera, Melky CHW Weaver, Jered LAA 7 U.S. Cellula... ND 417 108.0 25.3 72.2 79 0 -1 1 416 30
04/24/16 Video View Mazara, Nomar TEX Latos, Mat CHW 1 U.S. Cellula... ND 435 110.7 25.3 75.3 90 -5 1 1 438 30
05/04/16 Video View Abreu, Jose CHW Buchholz, Clay BOS 1 U.S. Cellula... ND 399 105.7 32.9 115.3 120 1 -6 2 402 30
05/07/16 Video View Frazier, Todd CHW Santana, Ervin MIN 3 U.S. Cellula... ND 385 105.8 27.2 124.5 73 0 -1 1 385 30
05/18/16 Video View Rasmus, Colby HOU Latos, Mat CHW 5 U.S. Cellula... ND 412 105.2 29.3 72.7 101 0 -3 2 413 30
05/18/16 Video View Castro, Jason HOU Latos, Mat CHW 6 U.S. Cellula... ND 408 108.8 27.5 60.3 83 0 -2 1 409 30
05/23/16 Video View Frazier, Todd CHW Clevinger, Mike CLE 1 U.S. Cellula... ND 402 104.4 31.7 111.1 111 -5 1 2 403 30
05/23/16 Video View Lawrie, Brett CHW Clevinger, Mike CLE 5 U.S. Cellula... ND 415 104.6 29.3 104.9 103 -1 1 2 414 30
05/24/16 Video View Gimenez, Chris CLE Sale, Chris CHW 4 U.S. Cellula... ND 413 106.0 29.3 111.3 97 -3 2 1 411 30
04/09/16 Video View Gomes, Yan CLE Sale, Chris CHW 7 U.S. Cellula... JE 349 96.3 29.7 117.5 78 -1 -4 1 352 12
04/09/16 Video View Garcia, Avisail CHW Shaw, Bryan CLE 7 U.S. Cellula... JE/L 368 98.7 26.0 73.5 70 0 -2 1 369 10
04/19/16 Video View Abreu, Jose CHW Shoemaker, Matt LAA 4 U.S. Cellula... JE 411 102.1 26.6 96.5 92 2 -2 1 410 18
04/23/16 Video View Desmond, Ian TEX Rodon, Carlos CHW 2 U.S. Cellula... JE 416 104.5 23.2 88.5 77 1 0 1 416 21
05/05/16 Video View Ramirez, Hanley BOS Johnson, Erik CHW 3 U.S. Cellula... JE 377 101.7 25.0 71.7 68 0 -1 1 377 19
05/05/16 Video View Garcia, Avisail CHW Owens, Henry BOS 4 U.S. Cellula... JE 368 111.1 19.8 114.1 46 0 -1 0 369 10
05/05/16 Video View Bradley Jr., Jackie BOS Albers, Matt CHW 6 U.S. Cellula... JE 381 101.3 24.4 103.7 68 0 -1 0 382 10
05/17/16 Video View White, Tyler HOU Rodon, Carlos CHW 4 U.S. Cellula... JE 390 100.7 25.8 101.5 79 0 -1 1 390 11
05/17/16 Video View White, Tyler HOU Rodon, Carlos CHW 6 U.S. Cellula... JE 378 101.1 24.6 104.6 68 0 -1 0 379 9
05/22/16 Video View Frazier, Todd CHW Ventura, Yordano KC 4 U.S. Cellula... JE 345 93.9 33.4 62.3 90 0 0 1 344 13
05/23/16 Video View Byrd, Marlon CLE Latos, Mat CHW 5 U.S. Cellula... JE 409 105.4 22.0 84.5 68 1 1 0 408 14


About HitTracker | Contact Us
© 2006-2016 HitTrackerOnline